Del Rio Laughlin AFB, TX

7:26 AM CST on November 23, 2017 (GMT -0600)
Laughlin Air Force Base

Weather History for KDLF - April, 2013

Change the Weather History Date:

Friday, April 12, 2013

  Actual Average Record
Temperature  
Mean Temperature 70 °F -  
Max Temperature 86 °F 82 °F 96 °F (2002)
Min Temperature 54 °F 59 °F 42 °F (1997)
Cooling Degree Days 5    
Growing Degree Days 20 (Base 50)    
Moisture  
Dew Point 40 °F    
Average Humidity 35    
Maximum Humidity 58    
Minimum Humidity 19    
Precipitation  
Precipitation 0.00 in - - ()
Sea Level Pressure  
Sea Level Pressure 29.83 in    
Wind  
Wind Speed 12 mph (SE)    
Max Wind Speed 23 mph    
Max Gust Speed 29 mph    
Visibility 10 miles    
Events      
Averages and records for this station are not official NWS values.
T = Trace of Precipitation, MM = Missing Value Source: NWS Daily Summary

Daily Weather History Graph

Daily Weather History Graph

Search for Another Location

Airport or City:

Trip Planner

Search our weather history database for the weather conditions in past years. The results will help you decide how hot, cold, wet, or windy it might be!

Date:

Astronomy

Apr. 12, 2013 Rise Set
Actual Time 7:19 AM CDT 8:08 PM CDT
Civil Twilight 6:55 AM CDT 8:32 PM CDT
Nautical Twilight 6:27 AM CDT 9:01 PM CDT
Astronomical Twilight 5:57 AM CDT 9:30 PM CDT
Moon 8:40 AM CDT (4/12) 10:29 PM CDT (4/12)
Length of Visible Light 13h 36m
Length of Day
12h 48m
Waxing Crescent, 5% of the Moon is Illuminated
Apr 12
Waxing Crescent
Apr 18
First Quarter
Apr 25
Full
May 2
Last Quarter
May 9
New

Hourly Weather History & Observations

Time (CDT) Temp. Dew Point Humidity Pressure Visibility Wind Dir Wind Speed Gust Speed Precip Events Conditions
12:58 AM 62.1 °F 39.6 °F 44% 29.83 in 10.0 mi ESE 6.9 mph - N/A   Clear
1:58 AM 60.8 °F 39.6 °F 46% 29.85 in 10.0 mi ESE 9.2 mph - N/A   Clear
2:58 AM 59.4 °F 39.4 °F 48% 29.83 in 10.0 mi ESE 10.4 mph - N/A   Clear
3:58 AM 58.1 °F 38.7 °F 48% 29.83 in 10.0 mi ESE 8.1 mph - N/A   Clear
4:58 AM 56.7 °F 38.7 °F 51% 29.84 in 10.0 mi ESE 9.2 mph - N/A   Clear
5:58 AM 55.9 °F 39.2 °F 53% 29.86 in 10.0 mi East 8.1 mph - N/A   Clear
6:58 AM 54.9 °F 40.1 °F 58% 29.86 in 10.0 mi ESE 10.4 mph - N/A   Clear
7:55 AM 55.4 °F 41.0 °F 58% 29.91 in 10.0 mi ESE 11.5 mph - N/A   Clear
8:58 AM 60.3 °F 40.6 °F 48% 29.91 in 10.0 mi ESE 16.1 mph - N/A   Clear
9:58 AM 64.4 °F 41.2 °F 43% 29.93 in 10.0 mi SE 13.8 mph - N/A   Clear
10:58 AM 69.1 °F 38.8 °F 33% 29.91 in 10.0 mi SE 16.1 mph - N/A   Clear
11:58 AM 73.6 °F 37.4 °F 27% 29.90 in 10.0 mi SE 18.4 mph - N/A   Clear
12:58 PM 77.5 °F 36.3 °F 23% 29.87 in 10.0 mi SSE 19.6 mph - N/A   Clear
1:58 PM 80.1 °F 38.7 °F 23% 29.84 in 10.0 mi South 18.4 mph 25.3 mph N/A   Partly Cloudy
2:58 PM 82.0 °F 39.0 °F 22% 29.81 in 10.0 mi SSE 18.4 mph 25.3 mph N/A   Clear
3:58 PM 83.7 °F 39.0 °F 20% 29.77 in 10.0 mi South 15.0 mph 26.5 mph N/A   Clear
4:58 PM 85.1 °F 40.3 °F 20% 29.75 in 10.0 mi SE 13.8 mph 28.8 mph N/A   Clear
5:22 PM 86.0 °F 39.2 °F 19% 29.77 in 10.0 mi SE 16.1 mph 28.8 mph N/A   Clear
5:58 PM 84.9 °F 39.2 °F 20% 29.73 in 10.0 mi SSE 18.4 mph 27.6 mph N/A   Clear
6:58 PM 84.2 °F 38.1 °F 19% 29.72 in 10.0 mi SSE 23.0 mph 28.8 mph N/A   Clear
7:58 PM 81.1 °F 39.4 °F 23% 29.76 in 10.0 mi SE 17.3 mph - N/A   Clear
8:58 PM 77.7 °F 40.8 °F 27% 29.76 in 10.0 mi SE 13.8 mph - N/A   Clear
9:58 PM 75.6 °F 40.8 °F 29% 29.78 in 10.0 mi ESE 11.5 mph - N/A   Clear
10:58 PM 74.3 °F 42.1 °F 31% 29.80 in 10.0 mi SE 20.7 mph 24.2 mph N/A   Clear
11:58 PM 72.1 °F 47.3 °F 41% 29.82 in 10.0 mi SE 23.0 mph - N/A   Clear